Location: Lynndyl
(39.5182°N, 112.3738°W)
Time: 15:52:14
(UTC+00:00)

X-37B - Visible Passes

Search period start: 06 July 2022 00:00
Search period end: 16 July 2022 00:00
Orbit: 328 x 343 km, 45.0° (Epoch: 29 June)

Date Brightness Start Highest point End Pass type
(mag) Time Alt. Az. Time Alt. Az. Time Alt. Az.
06 Jul 2.1 04:18:07 10° NW 04:20:37 28° N 04:23:01 11° ENE visible
06 Jul 3.1 05:53:29 10° WNW 05:54:13 16° WNW 05:54:13 16° WNW visible
07 Jul 1.1 04:38:31 10° WNW 04:41:14 45° NNE 04:42:13 30° ENE visible
08 Jul 0.4 04:58:56 10° WNW 05:01:28 67° W 05:01:28 67° W visible
09 Jul 1.1 03:43:59 10° WNW 03:46:41 44° NNE 03:49:24 10° E visible
09 Jul 2.6 05:19:36 10° W 05:20:43 18° W 05:20:43 18° W visible
10 Jul 0.2 04:04:23 10° WNW 04:07:11 80° SSW 04:08:48 22° ESE visible
11 Jul 1.5 04:25:04 10° W 04:27:32 28° SW 04:28:09 25° S visible
12 Jul 3.1 04:47:09 10° SW 04:47:32 10° SW 04:47:32 10° SW visible
13 Jul 1.7 03:30:30 10° W 03:32:59 28° SW 03:35:27 10° SSE visible
14 Jul 3.0 03:52:32 10° SW 03:53:10 11° SW 03:53:47 10° SSW visible
